Theta_e
319 319 319 319 319 319 319 320 320 320 320 320 320 320 320 320 320 320 320 320 320 320 320 320 320 320 320 320 320 321 320 316 314 315 314 314 326 331 345 347 346 347 341 327 315 313 312 315 317 322 324 326 328 336 341 343 342 340 325 321 317 319 320 326 325 327 332 326 329 333 335 329 326 336 337 335 328 327 326 326 329 334 334 337 338 340 342 343
320 319 319 319 319 319 319 319 319 319 320 320 320 320 320 320 320 320 320 320 320 320 320 319 320 320 320 320 320 321 319 315 313 314 314 326 339 337 340 351 353 348 339 314 310 310 311 313 316 320 320 320 333 335 343 335 343 330 324 322 315 322 325 333 335 334 330 328 332 335 338 332 329 334 335 325 324 323 322 324 328 329 333 336 338 338 340 341
319 319 319 319 319 319 319 319 319 319 319 319 320 319 319 319 319 319 319 320 320 320 320 319 319 319 320 320 321 322 317 314 315 314 319 345 338 344 347 348 353 350 318 311 310 311 311 316 320 320 319 319 333 332 338 335 338 335 326 318 320 329 332 335 336 335 341 336 333 335 337 336 335 336 337 324 321 322 320 321 325 327 328 332 335 337 339 340
319 319 319 319 319 319 319 319 319 319 319 319 319 319 319 319 319 319 319 319 319 319 319 319 319 319 320 321 322 320 316 313 313 320 324 350 345 341 344 348 354 349 314 312 312 312 314 312 312 313 314 319 330 336 331 337 332 335 329 321 324 334 331 335 336 337 341 340 336 335 337 334 335 339 333 325 319 319 322 327 326 327 329 332 334 335 339 338
320 319 319 319 319 319 319 319 319 319 318 319 319 319 318 319 319 319 319 319 319 319 318 318 319 320 321 322 321 318 312 307 314 324 329 348 352 347 345 348 354 332 313 312 312 311 310 309 311 316 316 315 331 331 333 337 341 333 329 333 333 331 330 336 336 338 340 341 338 335 331 331 339 338 332 325 317 316 323 328 330 331 332 332 332 334 337 337
319 319 319 319 319 319 319 318 318 318 318 318 318 318 318 318 318 318 318 318 318 318 318 319 319 320 321 322 319 316 309 297 314 322 356 350 350 351 348 348 353 323 313 311 309 312 311 312 312 313 313 323 330 327 332 336 338 324 332 332 332 333 331 337 336 336 337 333 333 332 336 339 337 333 334 326 322 325 330 331 332 332 333 334 334 335 336 337
319 319 319 319 319 319 319 318 318 318 318 318 318 318 318 318 318 318 318 317 317 317 318 319 320 321 321 321 317 315 309 306 315 317 347 352 350 349 352 354 349 317 309 308 309 309 310 311 316 316 315 324 330 330 334 335 336 331 327 331 329 337 332 337 335 336 336 335 331 331 338 333 331 326 335 327 328 329 331 332 333 334 334 335 334 335 335 336
319 319 319 319 319 318 318 318 318 318 318 318 318 318 317 318 318 318 317 317 317 318 318 319 320 321 321 316 315 309 309 312 320 335 356 353 345 347 342 326 320 312 309 308 309 308 312 312 314 320 313 324 331 330 334 331 334 330 328 331 330 335 336 338 337 336 336 334 338 336 332 329 330 328 332 325 327 329 330 332 333 333 333 333 334 334 335 335
319 319 319 319 318 318 318 318 318 318 318 318 318 317 317 318 317 317 317 317 317 318 319 319 320 320 321 315 314 307 308 319 325 345 347 336 332 330 316 311 313 310 310 312 314 314 316 314 318 320 316 327 331 330 333 329 326 334 330 332 331 332 336 338 336 336 336 337 337 330 329 332 334 337 330 326 327 330 331 331 332 332 331 332 333 334 334 334
319 319 319 319 318 318 318 318 318 318 318 318 317 317 317 317 317 317 317 317 317 318 319 320 320 320 316 313 313 304 314 330 336 341 334 328 325 317 313 311 310 309 310 311 314 315 314 315 318 321 318 330 332 327 334 330 328 336 333 333 331 332 334 337 333 334 336 336 336 328 329 332 337 334 319 328 328 330 330 329 330 330 330 332 332 333 334 334
319 319 319 318 318 318 318 318 318 318 317 317 317 316 316 316 316 316 317 317 317 318 319 320 321 320 315 317 306 301 321 328 329 332 328 323 316 311 310 308 310 309 310 311 312 316 318 318 320 321 323 330 336 333 334 334 338 336 333 331 331 333 335 336 334 332 332 330 337 331 327 330 330 332 320 326 329 330 327 328 328 329 329 330 331 332 333 333
319 319 319 318 318 318 318 318 317 317 317 317 317 316 316 317 317 317 317 318 318 319 320 320 322 318 315 314 307 305 320 322 329 327 323 317 312 310 309 309 311 311 311 310 312 315 317 319 320 316 311 337 328 336 333 339 337 335 335 326 327 329 329 335 333 335 334 331 335 332 327 324 325 323 327 327 329 329 327 326 327 327 328 329 330 331 331 331
319 319 319 318 318 317 318 317 317 317 317 316 315 315 316 316 317 317 318 318 319 319 321 321 321 319 316 307 314 321 320 319 319 324 320 314 311 310 309 308 311 312 313 312 312 316 318 319 318 312 317 332 332 325 336 340 337 337 334 327 323 324 325 331 337 335 334 334 339 336 312 316 322 325 331 329 328 328 326 325 326 327 328 329 329 329 329 331
319 319 318 318 318 317 317 317 317 317 316 315 315 316 316 316 317 318 319 318 320 320 321 323 319 317 315 311 322 327 325 322 320 319 317 316 310 309 309 308 310 312 314 313 315 316 317 317 316 313 324 334 331 342 335 334 337 326 330 329 319 316 316 330 333 336 330 336 338 336 313 316 322 328 333 329 329 326 324 325 326 326 327 327 327 328 328 330
318 318 318 318 317 317 317 317 316 315 315 316 315 315 315 315 317 319 320 320 321 321 320 323 320 314 311 314 324 328 346 340 317 313 316 313 311 311 308 308 308 310 311 313 313 316 318 317 316 313 316 341 339 333 328 327 329 329 316 313 320 315 318 327 335 337 327 331 338 329 314 316 323 325 334 329 328 326 323 324 325 325 325 325 326 327 328 329
318 318 318 318 317 317 317 316 316 315 315 316 314 314 316 316 318 320 321 321 322 321 321 317 318 315 311 306 317 335 321 310 309 313 314 315 313 310 310 308 308 309 310 312 316 317 316 318 312 310 332 337 331 325 321 321 322 324 316 313 315 317 319 321 327 336 336 333 334 330 316 321 322 330 336 332 328 326 323 323 323 324 324 325 326 327 328 328
318 318 317 317 317 317 317 316 315 315 315 315 314 315 316 317 319 321 322 323 322 322 318 315 320 317 306 320 326 316 311 311 315 316 317 315 314 313 311 309 309 310 313 315 317 316 314 315 314 313 319 324 327 324 314 310 309 312 318 312 318 316 319 317 326 332 332 332 326 330 322 323 325 330 332 335 328 324 322 322 323 323 324 324 326 327 327 327
317 317 317 317 317 317 316 316 316 315 315 314 314 314 313 318 319 319 320 322 322 321 318 321 317 313 307 319 309 312 315 315 317 315 315 315 315 311 311 310 311 310 314 313 313 310 311 307 309 301 308 315 317 318 311 306 309 309 311 311 313 319 319 319 319 327 330 331 327 326 324 323 328 329 331 334 333 324 321 322 323 323 323 324 326 326 327 326
318 317 317 316 316 316 316 316 315 315 314 315 315 318 319 318 317 315 316 318 313 312 303 311 310 299 296 304 312 316 316 315 318 314 312 313 316 312 313 313 312 309 306 307 304 309 306 301 306 302 299 302 306 316 314 315 316 315 315 315 316 314 315 318 325 332 330 325 325 323 320 321 326 327 328 330 334 326 323 323 323 323 323 324 325 326 326 325
318 317 317 316 316 316 316 316 314 313 314 311 311 315 314 307 306 310 317 316 312 310 308 310 316 316 312 310 311 317 320 319 313 314 315 316 317 311 309 310 310 309 304 300 302 304 305 297 296 297 299 302 308 314 318 318 320 320 319 317 317 316 318 326 327 331 335 326 324 323 324 325 325 327 330 331 331 328 328 323 322 322 323 324 325 325 325 326
317 317 316 316 315 316 316 315 314 313 312 310 311 309 305 305 301 298 305 307 314 315 313 313 317 314 310 309 310 312 313 313 314 313 313 317 313 309 306 306 304 300 300 303 302 305 304 295 295 299 302 303 305 311 315 318 322 320 318 317 316 318 315 324 324 331 333 324 321 323 324 324 325 329 330 332 330 328 329 330 330 322 323 324 324 325 325 327
317 316 316 315 315 315 315 314 313 311 310 309 313 308 309 309 313 310 308 302 310 312 314 314 316 314 316 313 311 314 310 308 307 309 314 315 312 304 302 302 299 297 300 302 302 299 296 295 298 300 303 305 305 305 314 320 320 320 317 316 315 316 323 327 328 331 330 326 320 325 321 323 327 329 331 331 330 330 332 334 335 332 326 323 325 325 325 327
317 316 316 315 315 313 313 313 312 310 308 310 309 312 312 316 318 316 312 307 305 312 311 312 312 312 311 309 313 314 307 304 302 308 312 313 307 306 302 299 297 298 300 301 296 295 293 295 300 302 302 302 303 305 310 316 320 317 315 315 313 320 317 313 324 327 326 325 320 322 319 321 326 329 329 331 332 333 335 336 336 337 332 327 325 325 326 327
316 316 316 315 315 313 313 312 310 310 308 309 310 311 317 318 318 315 311 303 303 309 312 312 312 308 303 304 311 309 305 306 308 306 315 311 305 307 303 299 297 298 295 298 298 295 296 301 303 302 301 301 301 302 308 312 311 317 317 317 317 318 319 319 320 325 327 326 327 320 317 318 322 321 324 329 335 334 335 336 334 334 335 335 332 327 328 327
316 316 316 315 314 313 312 310 309 311 313 312 311 316 318 318 318 316 309 303 304 304 310 311 307 308 308 313 313 307 306 307 307 313 314 311 307 306 303 305 300 295 297 298 298 297 297 302 303 300 300 300 300 298 301 310 308 312 318 320 321 322 320 322 323 321 316 314 322 318 307 309 318 320 322 327 329 329 334 333 332 331 332 336 331 326 329 329
315 315 316 315 314 313 310 309 316 315 311 310 314 317 319 319 317 317 307 299 295 300 301 298 308 302 313 306 309 307 308 302 309 312 314 312 319 307 307 300 303 296 298 297 296 295 298 304 302 300 300 299 299 298 300 310 303 305 311 322 324 322 323 322 319 317 308 306 316 323 307 303 317 318 321 325 326 327 331 332 333 332 332 333 332 328 328 328
315 315 315 314 314 310 305 306 314 313 310 313 317 319 320 319 322 314 304 295 288 299 297 304 305 304 310 307 309 309 295 299 312 313 313 321 309 313 302 299 301 303 305 305 299 292 301 299 300 301 299 298 296 295 300 306 303 299 306 323 324 324 322 320 319 314 308 320 321 321 318 306 306 315 324 326 325 325 327 330 332 332 332 333 334 331 329 329
315 314 313 313 312 310 310 310 311 310 311 316 318 319 320 319 317 311 300 287 285 302 299 301 306 313 310 309 309 304 305 308 303 308 312 313 310 308 303 299 300 299 302 301 290 296 298 298 298 298 298 296 294 298 305 309 304 305 322 326 323 323 323 321 317 314 315 313 308 315 320 307 306 316 325 326 321 323 324 327 331 331 331 332 334 334 330 330
314 313 313 312 311 309 311 311 312 311 316 317 318 319 321 320 310 303 292 286 298 300 313 301 312 309 307 308 306 305 305 309 302 306 309 310 310 306 299 301 303 302 303 302 296 298 302 300 300 300 298 295 299 306 309 311 305 314 327 327 326 325 324 321 314 314 312 307 303 310 316 304 305 316 319 324 321 320 323 326 329 331 330 331 333 334 332 331
314 312 312 311 308 308 308 310 310 316 318 318 318 319 320 313 303 296 291 284 302 292 303 304 303 300 305 301 301 305 303 307 309 308 309 305 308 309 307 308 304 302 301 304 300 301 303 311 310 306 301 301 306 310 312 310 310 314 326 322 322 321 319 317 314 312 307 299 302 312 315 311 301 313 316 316 318 323 325 326 330 332 331 331 333 333 332 332
312 311 311 309 308 315 313 307 311 318 318 318 318 318 312 305 298 290 286 291 302 298 304 302 299 304 300 299 295 303 303 305 307 307 302 306 302 306 305 301 306 300 297 296 296 300 302 303 305 307 313 311 307 306 308 309 312 312 314 314 315 313 311 304 306 306 297 296 305 314 315 315 300 307 318 323 326 327 326 325 328 330 331 331 333 333 332 333
310 309 310 308 311 314 308 307 310 314 315 318 318 313 304 293 296 288 290 302 291 295 296 295 301 300 300 301 299 301 299 305 306 303 299 297 297 297 297 293 298 293 290 291 292 297 298 297 302 308 317 308 305 300 300 303 302 304 305 312 304 297 301 297 299 297 293 295 307 316 316 310 307 311 319 324 326 327 328 328 329 331 332 332 334 334 331 333
309 309 309 310 312 309 313 314 314 315 317 316 313 308 299 292 287 291 292 295 291 297 295 302 300 301 301 299 298 301 304 297 302 302 302 301 298 298 301 299 300 297 291 294 293 293 292 299 303 306 305 311 304 299 297 300 298 300 300 300 294 293 292 287 292 295 297 307 316 314 318 307 311 313 321 323 327 329 330 330 331 332 332 332 334 334 331 333
309 309 306 310 310 313 315 319 320 318 315 315 309 303 298 290 290 315 293 294 295 301 300 300 301 301 300 295 299 300 296 301 300 301 303 300 297 296 296 300 302 299 299 296 292 291 287 291 297 303 298 307 305 301 299 297 300 299 300 300 295 293 291 286 290 291 296 300 310 317 309 302 305 307 324 325 328 329 330 332 332 333 334 334 335 335 333 332
308 309 309 312 313 313 313 316 317 319 315 310 304 298 292 290 293 290 291 293 296 300 298 301 299 297 296 298 299 301 299 297 302 302 300 299 294 295 297 296 303 302 301 292 299 298 294 292 299 305 305 306 305 307 306 303 299 298 302 302 298 296 297 290 293 296 301 303 304 308 305 310 309 319 327 327 329 329 330 329 332 332 334 335 335 335 334 333
310 317 312 314 317 320 318 318 317 317 314 306 299 294 293 295 291 295 294 300 299 297 298 299 299 293 293 293 299 301 303 297 300 300 299 300 298 298 303 304 303 306 299 299 300 292 294 292 300 304 308 304 304 307 307 304 294 297 302 297 300 302 301 296 300 304 304 298 298 307 307 310 316 318 324 325 326 327 328 328 330 331 333 333 333 335 335 335
316 319 313 315 318 320 320 321 320 318 314 303 297 292 297 300 299 297 305 298 298 299 296 291 293 292 292 293 295 299 298 298 299 297 294 300 295 301 302 303 305 305 304 301 296 301 294 293 300 302 302 306 306 305 305 306 302 296 293 295 300 304 302 296 290 293 293 291 294 305 303 304 307 303 321 323 323 325 326 327 329 331 332 331 332 334 335 335
315 318 321 317 317 318 320 323 322 316 307 302 296 310 308 301 302 302 301 299 300 299 294 292 293 299 295 293 292 295 297 294 295 296 295 299 296 303 302 300 304 303 303 302 296 298 299 290 295 301 303 304 307 305 303 303 306 300 296 302 296 290 292 292 292 289 289 291 293 299 306 304 305 306 317 320 322 324 325 326 328 330 331 331 332 333 335 336
316 313 308 312 316 316 316 325 320 312 303 297 297 298 309 301 301 301 301 302 301 299 292 296 294 296 297 293 295 296 298 293 296 295 293 297 294 302 300 302 301 304 303 304 299 300 300 292 293 300 301 303 300 299 293 295 301 304 303 298 299 297 292 293 293 292 292 290 294 296 302 298 310 310 316 319 323 325 326 325 327 330 331 332 332 334 335 335
312 307 305 313 316 321 318 321 309 304 300 294 294 299 300 297 300 301 301 302 298 296 297 295 297 293 296 297 297 293 297 297 294 297 296 297 297 304 301 303 300 302 304 306 303 303 298 297 290 296 302 299 295 296 293 295 294 295 296 293 297 298 298 298 298 295 292 290 291 293 292 298 310 323 323 319 321 326 327 326 327 328 331 333 334 335 336 337
315 307 305 316 318 320 313 308 302 299 297 297 301 301 303 300 302 301 303 303 300 303 299 298 298 295 297 295 295 298 297 296 296 294 296 297 295 292 302 302 303 301 303 302 300 300 297 295 292 293 295 293 296 299 300 300 296 293 294 292 293 293 292 290 287 296 297 290 288 291 290 301 318 330 327 322 321 326 329 329 328 328 330 331 333 335 335 335
307 300 302 314 317 318 311 301 298 300 299 298 296 301 301 312 300 299 301 302 302 299 303 303 300 300 298 297 298 297 296 295 296 295 298 294 301 297 301 302 302 304 299 295 296 302 302 301 295 292 294 296 300 304 306 306 304 299 297 295 296 293 294 290 286 288 293 296 304 299 297 300 318 328 329 328 328 329 328 330 329 330 329 330 331 333 334 334
308 305 316 318 318 316 306 300 307 305 300 301 305 303 302 301 301 301 300 301 299 301 299 300 301 298 300 299 299 297 299 297 298 296 298 299 298 301 302 301 303 303 299 295 300 300 315 296 294 295 296 301 303 306 306 307 304 297 297 298 297 294 294 294 292 294 292 295 298 297 294 301 315 326 327 328 328 328 329 330 329 331 331 330 330 331 331 333
306 306 309 316 317 315 302 294 294 295 298 303 303 301 303 301 301 300 300 300 299 298 298 299 300 303 301 301 299 297 299 294 298 296 296 300 297 303 302 301 303 300 299 297 297 303 296 297 294 290 288 292 296 300 301 305 304 298 298 300 302 307 303 298 296 296 293 292 300 292 292 298 312 325 325 327 327 327 329 332 331 329 331 332 333 334 336 337
310 312 310 312 317 308 299 297 297 296 300 299 301 298 301 301 302 302 300 299 301 299 298 297 300 300 300 301 300 301 301 297 296 299 299 299 299 304 301 301 303 301 308 305 321 307 298 300 294 288 287 285 286 286 290 294 297 300 303 308 309 309 307 298 295 295 287 297 303 297 297 305 317 321 322 324 326 326 328 330 332 331 331 331 332 334 335 337
305 297 303 306 309 307 303 305 301 300 296 300 298 299 299 296 299 302 301 301 301 300 300 299 299 299 300 300 299 300 301 303 298 297 297 298 298 301 302 302 304 304 325 324 321 308 302 303 298 294 292 290 291 294 298 304 299 296 299 307 308 311 311 307 300 296 291 297 302 305 307 309 312 315 317 319 323 324 325 327 328 331 333 334 333 334 335 336
311 302 303 301 310 304 305 307 299 299 295 299 294 300 299 299 299 300 303 298 300 300 300 300 301 298 298 299 299 299 302 300 302 300 299 299 301 300 303 304 303 313 328 315 318 302 299 293 299 300 301 299 299 301 301 303 299 301 306 307 310 310 311 310 305 301 304 299 298 309 311 309 310 316 317 318 321 324 326 327 329 331 331 332 335 336 339 336
299 303 312 316 304 295 305 304 309 308 300 300 298 301 297 296 298 297 301 302 302 301 298 301 300 301 301 301 301 298 301 299 300 300 302 301 300 301 300 303 302 311 312 303 307 301 297 294 300 299 298 300 302 302 303 306 307 308 309 309 308 310 310 308 308 311 307 299 300 309 312 310 313 316 319 320 322 324 325 327 328 331 332 333 334 334 335 336
313 313 312 320 309 309 310 311 313 308 301 300 299 301 298 298 296 300 298 298 301 300 301 296 297 300 302 303 300 298 299 293 296 302 301 299 301 299 296 300 302 302 301 301 301 304 297 294 304 299 299 301 302 303 303 304 306 309 309 309 309 310 309 310 310 312 312 310 312 311 311 311 315 318 320 322 325 325 325 328 329 330 331 330 330 330 331 331
310 310 308 316 316 312 312 310 308 301 296 305 296 298 301 299 297 298 298 296 296 297 301 297 297 299 302 302 302 299 302 300 299 299 304 300 295 300 299 299 297 300 300 300 302 303 296 295 308 298 295 297 301 304 303 303 305 305 308 309 310 310 310 311 311 311 311 309 311 313 312 311 318 322 322 324 324 325 326 327 328 329 331 332 330 329 330 331
314 319 317 311 308 309 313 309 304 302 297 297 295 299 300 299 299 300 298 300 297 299 300 297 299 298 301 301 301 301 304 305 306 304 305 301 297 300 296 298 302 299 299 298 300 300 298 294 299 297 292 293 299 301 302 302 303 305 306 307 307 308 306 309 309 312 310 308 310 313 310 311 318 322 321 321 323 324 325 326 327 328 330 330 329 329 329 330
314 319 321 315 308 315 307 307 305 300 294 300 302 300 301 300 300 300 297 302 301 302 299 299 299 298 300 300 301 302 303 302 303 303 302 300 300 300 300 302 301 301 299 300 303 296 298 295 292 293 289 292 297 299 300 300 299 296 298 306 308 309 310 312 313 315 314 314 310 308 310 318 319 320 317 318 320 322 323 325 326 328 328 329 328 329 329 330
Wind_Speed
11 12 12 11 11 11 11 11 11 11 12 12 12 12 13 13 13 13 13 13 13 13 13 13 13 13 13 14 13 13 12 7 7 2 5 11 8 11 7 8 7 11 12 1 1 1 2 3 6 5 4 4 4 5 4 4 4 3 4 3 2 3 6 5 6 6 0 5 3 2 2 6 5 2 3 6 8 11 9 9 8 12 9 11 13 15 17 17
12 12 12 12 12 11 12 12 12 12 12 12 12 12 12 13 13 13 14 14 14 14 14 13 13 13 14 13 13 14 11 5 6 6 16 7 9 11 11 6 3 12 12 2 4 3 2 3 7 4 4 2 4 4 7 1 5 2 2 2 4 5 4 5 2 4 3 4 4 3 1 5 4 5 3 7 6 10 10 10 14 13 14 12 12 16 16 16
12 12 12 12 12 12 12 12 13 12 12 12 12 13 12 13 13 13 13 13 13 13 13 13 13 13 13 12 12 12 8 5 4 4 7 14 14 10 11 7 6 15 10 4 4 4 6 0 1 4 4 3 4 5 6 4 4 1 4 2 3 7 2 7 7 5 0 3 5 3 1 2 3 2 3 8 9 12 13 13 14 17 16 15 13 15 16 15
13 13 13 13 12 13 13 12 13 13 13 13 13 12 13 13 13 13 13 13 13 13 13 13 13 13 12 13 12 7 4 4 0 1 4 5 16 17 14 10 10 12 5 1 1 3 2 4 6 4 3 6 3 8 8 4 4 2 1 3 2 1 4 5 7 1 4 1 5 3 2 1 3 3 2 10 11 7 8 15 19 19 19 16 14 16 16 15
13 13 13 13 12 13 13 13 13 13 13 13 13 12 12 13 12 12 12 12 13 13 13 13 13 13 13 11 10 4 3 1 2 3 3 3 9 16 16 11 10 7 6 2 1 3 3 4 2 3 5 4 7 6 2 5 1 4 3 3 2 2 2 6 9 4 7 3 1 4 5 4 1 1 5 8 13 8 11 14 19 20 19 17 15 15 15 15
14 14 14 13 13 13 12 13 13 13 14 14 13 13 13 13 12 13 12 12 12 12 12 12 13 13 13 12 6 3 0 2 2 2 3 1 6 10 13 11 10 6 4 2 2 1 3 3 5 3 3 3 5 5 4 5 6 2 1 2 5 2 4 3 8 5 10 4 4 2 0 1 2 1 3 9 8 5 8 17 18 19 19 16 12 14 15 15
14 14 14 14 14 14 14 14 14 14 14 14 13 14 13 13 12 12 12 11 11 11 11 12 12 12 13 12 1 1 1 6 3 7 7 4 6 11 12 10 9 4 4 3 2 2 4 3 2 4 1 1 4 4 6 5 5 1 1 4 4 3 10 8 10 10 11 7 1 8 6 7 6 3 1 6 6 9 13 16 16 16 16 15 13 14 14 13
14 14 14 14 14 14 14 13 13 13 14 14 13 13 12 12 11 11 11 10 10 10 10 10 11 11 11 5 0 1 1 6 9 2 9 8 7 9 10 5 6 4 5 7 5 5 1 3 5 2 4 5 4 6 8 7 2 3 3 6 2 9 5 7 9 9 11 8 4 11 1 1 5 1 7 8 11 16 15 17 17 16 15 13 13 13 12 12
14 14 14 14 14 14 14 14 14 14 13 13 13 13 13 12 12 11 10 9 9 9 9 9 10 8 7 2 1 2 3 8 4 7 9 8 7 7 9 4 4 7 4 3 3 2 0 2 4 6 2 1 3 10 10 6 0 2 6 6 5 7 4 5 10 9 9 5 7 10 4 2 5 5 2 12 12 14 17 16 17 16 14 14 14 13 12 12
14 14 14 15 15 14 14 14 14 14 14 14 13 13 12 12 11 10 9 9 8 7 8 8 8 7 4 1 0 1 3 3 4 9 7 8 7 7 4 3 9 6 4 4 3 3 4 7 4 3 6 1 0 3 12 2 3 9 10 9 10 7 5 6 8 9 8 8 7 4 5 4 6 5 4 6 13 18 17 16 15 15 14 15 13 12 11 13
14 14 15 15 15 15 15 15 14 14 14 14 13 12 12 11 10 10 9 8 8 7 7 6 5 5 2 2 1 3 5 4 2 5 8 9 10 8 7 6 8 7 5 2 6 7 10 9 9 5 2 1 6 10 7 5 13 11 15 15 9 8 6 6 11 10 6 5 4 9 4 5 8 3 6 8 14 18 17 16 14 13 13 13 14 13 11 10
15 14 15 15 14 15 15 14 14 14 14 15 14 13 12 11 10 9 9 8 7 7 6 3 4 1 1 1 2 7 4 4 4 5 8 10 7 10 7 7 7 8 8 5 7 8 5 7 6 3 1 2 6 6 8 10 11 11 7 11 8 6 6 7 5 7 8 4 2 6 9 8 5 3 6 10 12 15 15 15 14 13 13 13 13 11 9 8
15 16 15 14 15 15 15 15 14 15 15 15 14 13 12 11 10 10 9 8 5 5 4 3 2 2 1 2 9 10 8 1 2 5 5 5 3 4 6 5 8 6 9 6 3 4 8 6 5 3 2 5 5 1 7 7 6 5 3 11 10 5 3 7 4 6 11 4 4 2 6 6 7 8 4 9 13 15 13 14 12 12 12 11 11 10 8 8
17 16 16 14 14 16 15 15 15 15 16 16 13 13 12 12 11 11 10 7 6 7 7 3 0 1 1 5 6 4 7 3 4 5 8 7 5 3 4 5 7 7 4 7 10 7 6 7 6 6 1 6 6 10 11 4 1 3 5 2 6 7 2 2 1 4 8 1 0 2 6 7 9 8 6 10 15 16 15 13 12 11 10 10 10 10 9 10
17 17 16 16 16 15 15 15 15 16 16 15 15 14 12 11 11 11 9 6 5 7 5 2 1 0 1 7 7 9 11 7 3 5 9 7 4 0 4 5 6 8 8 9 4 3 4 6 4 2 3 9 13 8 7 3 1 1 2 2 1 5 3 5 5 4 6 1 4 4 3 6 5 6 4 10 13 15 15 14 12 10 9 10 10 11 10 10
17 16 17 17 16 16 15 14 13 14 15 15 16 16 13 10 10 9 7 6 3 3 1 1 2 1 2 7 3 9 7 1 5 7 4 8 7 5 9 9 6 6 7 5 7 7 6 1 2 3 11 10 10 6 5 5 1 1 2 3 2 4 6 7 3 2 8 7 3 2 4 0 3 5 1 8 11 12 14 13 10 10 11 10 11 11 9 9
15 15 14 16 16 15 15 12 13 13 13 15 18 17 11 7 8 5 5 4 2 3 3 0 3 2 1 3 4 4 2 4 3 1 1 5 6 6 4 4 3 6 6 8 4 3 2 0 1 2 3 5 5 8 7 2 1 3 2 2 1 7 6 4 6 3 5 2 3 4 3 5 3 3 2 5 9 11 12 12 11 10 9 8 10 10 10 8
15 15 15 14 16 15 14 12 12 13 13 15 16 13 7 4 3 5 1 3 2 3 3 3 1 1 6 2 1 1 2 1 1 4 5 4 8 4 5 4 3 3 1 2 2 3 1 1 1 3 3 7 5 4 7 7 8 7 4 3 2 1 6 9 10 9 8 3 6 3 3 8 3 1 1 3 5 10 11 12 13 12 10 8 9 10 10 8
17 16 15 14 14 15 14 12 12 12 15 19 17 14 3 4 2 0 1 3 2 1 1 0 1 2 2 6 6 5 3 7 3 4 3 4 1 3 2 1 1 4 1 1 3 2 1 2 1 1 5 8 9 9 9 10 9 10 11 7 6 8 5 7 3 8 12 8 7 4 5 9 2 1 2 2 2 5 7 11 11 12 11 9 9 11 9 8
17 16 15 14 13 16 15 14 11 10 15 10 7 3 1 3 3 1 1 1 3 5 7 5 6 3 7 7 4 1 3 4 3 2 2 2 2 2 4 3 0 1 2 4 1 3 2 3 5 7 8 8 8 11 12 8 8 9 7 6 8 4 2 3 4 7 5 9 6 8 2 4 2 3 7 8 5 4 5 6 12 11 11 10 10 11 9 9
16 16 15 14 12 13 15 12 10 9 11 3 4 2 1 2 3 5 6 6 7 7 7 7 12 9 8 3 4 3 0 1 1 2 3 1 3 5 2 2 1 4 4 4 4 1 3 3 8 9 9 10 11 9 10 8 9 12 8 8 6 5 5 1 3 6 5 3 8 10 6 5 3 2 4 5 5 6 5 4 2 11 12 10 13 12 10 8
17 16 15 14 13 12 13 11 10 9 7 1 1 0 3 4 5 3 1 6 10 8 8 11 6 7 9 12 9 3 3 0 3 4 3 3 0 3 2 2 3 7 4 1 1 1 3 8 10 12 11 10 7 4 5 8 10 10 9 7 7 3 4 6 5 6 3 4 4 8 7 3 2 5 5 1 3 3 2 1 1 1 3 8 12 11 10 9
17 16 15 15 13 13 11 11 9 9 2 1 3 3 4 6 2 4 4 2 7 6 5 4 3 7 10 6 1 4 1 2 4 3 1 3 3 5 2 3 4 4 1 3 4 2 3 7 13 11 9 8 7 7 6 7 9 8 7 8 8 8 8 4 3 6 2 0 5 5 7 1 4 5 7 3 1 2 3 2 1 1 0 3 12 9 11 12
17 16 16 14 15 14 13 10 9 2 2 3 5 6 7 5 6 6 2 1 3 6 4 5 5 3 5 3 3 4 3 1 1 4 4 5 6 3 2 4 6 2 4 4 7 8 12 13 10 9 8 8 10 7 7 8 6 8 12 8 8 11 8 3 9 7 4 5 7 11 4 2 3 4 4 5 3 1 1 2 3 3 1 3 5 8 12 15
17 17 16 15 15 16 12 12 1 2 3 3 4 7 8 8 4 4 1 3 3 4 4 0 2 1 2 2 1 1 2 1 5 3 3 6 4 2 3 2 2 5 6 6 5 8 11 10 1 5 7 7 7 7 7 6 7 6 10 15 17 16 9 12 15 12 3 1 4 13 4 3 4 7 8 7 2 2 2 2 3 6 4 1 3 8 11 13
17 17 16 15 16 17 11 1 0 4 6 4 6 4 5 3 3 4 3 2 4 4 4 2 1 1 0 1 2 2 3 2 4 4 4 5 3 2 1 2 3 7 8 4 6 4 8 9 5 7 10 9 7 7 5 10 7 8 7 11 16 14 12 17 18 9 5 6 9 7 7 2 3 8 9 6 6 8 2 3 5 5 5 2 4 6 9 12
16 16 15 15 14 17 4 3 2 5 3 4 3 8 9 7 1 1 3 2 1 2 0 2 2 1 1 2 2 3 1 3 3 4 4 2 4 2 3 6 3 2 2 1 1 4 3 4 7 8 7 7 5 7 6 8 7 4 5 16 16 15 17 17 17 7 3 1 4 5 1 5 5 11 13 11 11 11 9 7 7 7 5 4 5 6 7 11
15 15 14 13 9 8 0 3 7 4 6 6 5 9 11 7 6 4 2 2 1 2 1 1 1 1 1 2 6 2 5 2 1 2 2 2 4 1 3 3 3 5 4 2 3 10 4 4 5 5 5 5 6 7 7 7 5 4 4 19 18 20 15 16 11 5 3 7 4 6 5 1 3 2 6 9 10 13 14 13 11 10 9 7 8 7 7 12
15 14 13 10 10 3 2 1 0 4 5 3 8 9 8 8 2 2 3 2 0 0 3 0 3 1 1 1 0 3 3 2 3 3 3 4 3 3 1 2 2 4 4 5 7 6 4 6 6 6 4 6 6 6 9 9 5 4 13 11 8 10 12 16 7 7 5 4 4 9 10 2 1 1 7 6 9 14 17 17 14 12 12 10 9 8 8 11
15 14 11 8 5 2 0 0 6 9 4 8 9 9 7 1 2 3 2 1 1 1 1 1 1 2 0 2 2 2 3 1 2 0 0 2 0 1 2 2 4 3 5 2 3 9 10 2 6 3 3 4 9 9 8 5 7 7 17 12 10 9 8 3 3 3 2 1 5 12 12 5 2 6 11 13 13 19 14 9 9 12 13 12 9 8 7 11
15 12 8 1 1 1 0 5 8 5 5 4 8 8 2 3 2 3 1 1 0 2 0 0 4 1 4 3 4 2 3 4 3 2 0 1 2 1 1 3 1 2 2 4 5 4 2 3 1 2 4 1 4 1 4 3 1 11 5 9 10 5 2 3 2 2 2 3 4 10 13 9 2 3 7 15 14 17 16 17 15 14 15 14 10 8 8 11
16 11 9 6 4 4 3 7 1 2 7 7 6 6 4 2 3 2 1 1 1 1 1 2 5 2 7 8 4 0 3 1 2 1 4 2 2 1 2 4 1 1 4 2 2 4 3 2 2 3 3 7 1 4 4 5 5 8 10 9 11 3 1 1 1 1 3 4 2 9 9 2 6 6 11 18 15 9 13 15 18 17 16 15 11 10 8 10
20 11 9 10 4 2 8 12 6 7 4 5 5 3 4 5 2 3 2 1 1 2 2 3 6 5 2 3 4 8 2 5 3 1 4 1 2 5 4 4 4 3 1 3 3 2 5 2 4 1 4 1 5 6 1 4 2 6 7 10 8 4 2 3 3 1 1 4 1 8 6 3 3 6 8 15 17 12 14 15 16 16 16 15 12 8 7 10
22 10 3 7 11 10 6 1 0 3 5 3 3 8 5 5 2 5 3 1 2 1 4 1 2 2 4 4 1 3 1 2 2 2 5 2 1 1 3 4 5 4 2 4 4 1 2 2 3 1 1 2 2 5 7 4 1 1 3 8 7 9 5 4 4 5 7 5 1 6 5 5 2 2 2 12 15 13 11 13 13 15 14 13 12 9 7 11
24 11 6 2 4 11 15 9 2 0 1 4 7 3 4 3 3 3 3 3 2 4 6 6 2 1 1 0 3 1 2 0 2 2 1 1 2 1 0 4 3 2 1 1 2 0 3 4 6 4 3 3 2 1 4 3 3 3 1 4 5 3 5 3 5 6 5 5 4 2 4 2 3 2 3 4 7 10 10 11 11 13 13 12 11 9 8 9
12 1 6 2 4 7 8 6 6 5 5 6 4 3 1 3 1 1 1 2 3 2 8 12 3 2 1 2 1 3 3 2 1 3 1 2 0 2 2 2 3 0 1 0 1 2 3 1 2 4 2 4 6 3 1 5 2 2 0 4 6 3 6 2 3 3 5 5 2 2 4 4 3 3 1 4 7 10 10 11 13 13 14 13 13 12 9 7
6 6 2 3 3 5 6 9 8 6 7 4 3 2 4 3 3 2 3 3 5 1 3 6 5 3 2 0 0 0 1 2 1 2 1 1 2 2 1 3 5 3 2 1 3 1 1 6 7 2 5 6 3 4 4 4 5 2 1 3 3 2 5 4 2 0 2 2 2 1 6 2 1 3 1 6 9 9 11 12 14 14 14 15 14 13 10 8
6 3 4 5 10 7 8 10 10 4 3 1 1 4 2 2 4 0 2 3 3 3 2 3 3 3 4 5 6 4 2 3 2 2 2 0 1 2 3 2 6 4 6 1 3 3 2 3 4 2 3 5 1 2 1 2 1 5 4 2 3 3 1 4 3 0 1 1 1 2 1 3 5 3 3 6 9 10 10 11 12 14 15 15 14 13 11 8
2 1 5 8 2 2 3 11 5 5 2 1 1 4 4 4 3 2 5 2 1 2 2 1 0 2 1 3 4 2 1 0 0 2 2 2 2 3 6 2 5 11 8 6 5 3 3 1 5 4 3 2 3 3 2 3 2 1 1 3 0 4 3 1 5 4 4 1 1 2 2 3 2 1 3 6 8 10 9 9 12 14 15 14 13 13 11 8
3 3 4 4 4 2 6 9 5 2 1 3 3 3 4 4 3 4 6 6 2 2 1 2 4 1 4 4 4 2 3 6 2 1 3 2 1 3 6 5 4 4 7 7 4 2 1 2 1 7 10 3 2 1 3 6 3 1 0 1 1 1 3 3 1 3 4 4 3 2 2 5 3 4 5 6 7 9 9 9 8 10 12 12 12 12 10 6
2 0 6 6 5 3 3 3 2 2 2 3 2 3 5 4 1 3 7 8 3 1 2 0 0 0 1 5 6 3 1 2 2 4 2 2 2 3 2 1 3 4 4 9 8 5 3 3 3 6 6 2 3 4 3 2 3 5 6 5 6 3 4 3 6 3 2 4 3 3 5 2 3 3 5 1 4 7 8 10 8 7 10 10 8 7 7 5
2 2 6 3 4 7 2 1 2 2 1 4 6 2 2 5 1 4 4 5 4 1 2 1 2 1 2 1 1 3 2 2 2 4 2 2 0 2 2 3 5 1 3 2 3 3 1 2 2 2 2 3 7 10 6 1 2 5 7 4 6 4 4 3 1 4 2 1 5 3 3 2 1 5 5 4 5 4 4 9 8 8 9 10 8 8 7 6
1 5 9 12 10 1 2 2 1 0 3 5 3 3 3 1 0 2 3 2 4 2 4 2 0 3 2 2 3 2 3 1 0 2 1 1 3 2 6 7 5 5 3 4 2 4 1 2 4 4 6 7 7 5 3 10 8 5 4 5 3 3 5 7 7 5 3 1 2 1 1 2 1 4 5 5 5 7 9 5 3 3 7 9 8 8 7 5
3 4 8 5 2 0 1 3 3 4 3 6 4 1 1 2 1 2 1 2 0 3 2 2 3 1 1 2 1 4 3 1 4 4 2 0 2 5 5 7 4 3 3 1 1 5 2 2 4 3 5 8 10 11 10 9 5 4 3 6 5 7 4 1 3 3 2 3 5 5 2 2 1 5 8 8 10 13 11 9 6 6 5 2 4 4 2 3
4 4 5 8 5 3 1 3 4 3 3 3 1 4 1 1 4 1 1 2 2 1 2 2 1 2 3 1 5 6 6 4 0 3 1 4 3 3 8 9 5 2 2 3 5 1 4 1 4 4 4 4 4 5 6 7 8 5 1 7 10 11 7 4 3 2 4 3 3 4 3 2 3 9 12 12 11 12 11 10 9 7 4 4 4 4 4 4
2 2 5 5 4 4 1 3 2 0 6 2 3 0 2 2 2 3 2 2 1 2 0 3 3 3 3 5 5 6 6 7 6 2 4 3 3 3 5 8 9 3 5 4 2 2 1 1 3 2 1 2 2 4 8 2 2 4 5 10 8 10 11 6 3 5 2 1 4 5 3 5 13 13 10 11 10 11 11 11 11 9 7 5 3 2 1 1
1 0 3 5 7 4 6 4 3 4 5 3 2 1 0 1 3 1 2 1 2 1 3 2 1 4 2 5 1 4 3 4 6 5 4 2 2 3 5 8 7 10 9 4 5 2 3 4 4 1 2 3 5 3 8 5 1 7 10 9 10 11 14 16 7 2 3 4 6 6 10 10 8 9 10 9 8 9 9 9 8 7 8 8 5 4 6 6
1 3 2 0 1 3 7 8 8 12 7 2 1 0 2 4 3 2 1 1 0 3 2 5 7 4 6 5 2 3 3 4 3 1 4 2 2 7 6 7 4 7 6 1 3 3 2 2 3 4 8 6 10 13 8 16 13 9 13 12 12 12 18 15 8 7 6 6 4 6 12 12 9 9 6 4 5 8 9 8 7 4 5 8 9 10 10 9
1 1 2 5 2 3 4 8 10 12 1 3 0 0 0 2 4 2 1 0 3 2 2 2 6 3 4 3 4 1 0 2 3 1 0 2 2 2 4 5 4 6 3 4 4 1 2 2 2 5 4 9 9 8 7 11 10 14 13 12 12 15 12 13 13 14 17 11 8 8 11 13 9 8 7 7 4 6 6 6 7 9 8 8 10 10 11 10
2 2 5 4 2 6 5 3 4 6 3 2 1 2 1 1 2 3 3 3 2 2 1 5 4 7 1 4 2 2 1 6 4 1 1 4 8 2 0 1 2 5 1 1 0 1 5 3 6 4 5 3 7 9 7 9 11 15 12 13 13 12 14 11 9 8 7 7 7 10 11 11 7 6 6 6 4 3 10 13 12 9 9 10 10 10 9 6
3 2 1 3 6 6 4 3 5 5 3 4 2 3 3 3 2 1 1 1 2 1 2 2 2 5 5 5 6 3 1 2 1 1 1 1 1 3 1 3 2 1 3 3 2 4 5 2 3 4 5 5 2 5 10 5 16 15 13 9 7 13 12 7 9 5 6 4 3 10 10 7 6 6 6 10 10 12 13 12 11 10 9 11 11 9 8 6
3 2 3 1 2 3 4 3 2 4 4 3 5 3 1 2 3 3 1 4 2 2 4 2 2 4 3 7 4 2 1 0 0 0 0 2 2 5 3 2 1 1 0 1 0 2 0 1 3 3 4 2 5 2 10 5 9 11 8 8 13 12 10 11 11 11 8 2 6 5 3 3 4 3 8 11 12 11 12 10 10 11 11 11 10 10 8 7
Wind_Direction
342 339 339 338 334 332 330 328 328 327 326 327 326 325 323 324 323 322 322 324 325 327 328 329 328 328 327 325 324 320 325 318 313 244 206 240 195 220 189 241 219 193 190 174 271 138 259 205 230 223 228 176 201 121 149 97 137 147 171 144 169 250 197 204 185 175 136 134 196 231 155 121 151 111 156 116 132 134 134 131 116 114 111 121 129 128 128 130
343 340 336 333 331 330 327 327 326 325 325 324 324 324 323 322 322 322 322 325 327 326 328 329 330 327 325 323 323 324 330 296 274 261 233 222 205 210 227 254 187 155 160 199 203 195 159 228 230 192 201 220 169 133 161 267 199 129 132 151 183 219 229 162 152 189 151 168 169 207 110 133 191 145 165 137 144 125 126 125 129 111 119 128 135 129 132 132
344 339 334 331 331 330 329 327 326 324 324 323 322 324 323 321 321 321 324 323 323 325 326 327 327 325 321 321 322 330 333 311 264 264 263 221 214 204 212 233 141 153 160 169 214 184 202 272 253 201 211 240 164 162 211 169 169 228 135 205 213 221 188 172 156 185 300 132 154 160 202 128 206 152 95 142 145 138 139 135 125 130 138 148 142 134 133 133
347 342 337 333 331 329 328 325 324 323 322 323 323 322 322 321 321 322 322 322 323 324 326 326 324 325 322 322 324 329 303 288 9 264 251 166 199 205 206 198 167 171 173 182 164 179 236 284 285 275 270 217 175 139 177 188 182 184 164 197 215 268 171 181 143 240 353 162 151 155 76 142 217 209 95 143 129 141 140 146 141 143 147 151 151 137 138 140
346 343 337 333 330 329 326 325 323 322 321 320 322 321 321 322 321 321 321 323 323 324 325 325 325 320 323 321 324 331 321 50 206 232 269 308 194 203 199 180 172 174 171 168 167 250 260 248 229 252 230 197 155 142 198 126 93 118 200 69 73 27 294 73 112 355 351 348 95 118 124 203 89 13 93 137 145 165 155 150 140 141 146 152 152 141 141 143
345 341 338 334 331 328 324 323 321 320 320 320 321 320 321 321 320 321 323 322 326 326 324 322 322 323 324 320 304 278 2 108 279 254 145 278 156 185 182 170 167 162 154 186 174 205 200 240 203 220 200 141 191 171 199 136 169 181 176 115 55 347 151 65 52 46 49 22 9 303 133 330 92 52 121 128 142 159 148 141 143 143 146 150 141 140 141 144
342 338 336 334 330 328 327 323 322 321 320 319 319 319 321 322 321 323 324 326 324 324 321 322 321 325 327 312 263 285 83 262 284 247 141 121 123 133 138 144 156 150 159 160 193 183 210 245 208 239 244 167 223 149 147 140 204 170 103 80 356 48 76 72 86 79 69 76 45 279 307 51 3 108 8 106 145 135 136 136 135 137 140 143 140 146 145 150
341 338 336 334 331 329 326 324 322 320 318 318 316 316 318 318 320 321 322 322 320 318 321 320 322 325 335 337 105 346 92 256 241 192 132 112 110 123 123 124 141 150 165 195 169 199 225 244 229 251 223 163 204 132 141 108 114 115 99 89 328 76 88 77 102 97 97 94 46 294 318 116 87 127 323 128 136 132 133 132 135 140 142 140 142 147 154 158
338 337 336 333 331 329 327 325 322 320 316 313 314 315 315 317 318 319 318 317 319 317 318 321 324 323 327 295 8 3 269 234 207 137 132 132 131 124 130 141 162 158 191 196 208 223 52 257 242 211 264 239 161 131 161 128 16 92 96 93 109 100 68 68 89 92 90 89 54 354 16 346 46 23 55 146 137 132 131 136 140 143 145 145 150 156 165 167
337 336 335 334 332 329 327 325 323 320 318 317 319 317 317 320 318 316 315 313 311 309 310 320 319 333 327 321 278 63 259 142 94 135 139 133 131 140 181 178 159 164 161 211 201 206 200 230 236 294 305 277 340 131 178 105 129 101 107 89 87 106 96 28 82 75 59 56 74 65 330 356 22 42 143 157 141 133 136 140 144 147 147 151 158 164 169 175
337 336 335 333 332 330 327 326 324 321 318 317 314 315 315 315 314 311 309 304 300 300 305 312 325 327 332 303 37 233 257 79 79 128 150 140 135 151 200 180 175 160 174 209 215 203 220 232 247 286 288 148 61 28 66 102 114 99 102 84 64 52 59 87 85 87 62 33 6 99 317 0 5 350 175 160 144 138 139 144 151 152 154 159 163 166 174 174
336 336 335 334 333 329 328 326 324 321 318 316 315 316 315 311 309 306 299 297 293 291 298 292 312 303 261 4 181 235 272 88 151 165 165 153 155 190 183 187 185 173 165 196 234 235 242 261 296 284 239 186 72 104 82 110 100 136 117 95 79 61 28 44 98 124 114 84 350 111 54 359 342 295 163 154 141 138 141 149 158 161 162 165 165 166 172 169
337 336 335 335 333 331 329 328 324 322 322 317 315 312 311 308 303 297 291 292 277 265 263 282 281 238 19 336 229 240 275 269 256 192 193 191 159 181 188 183 203 194 182 188 253 241 231 237 244 256 279 105 141 19 135 112 115 131 60 113 100 48 55 360 34 112 110 128 172 141 114 243 271 255 212 158 143 142 142 155 164 170 169 165 162 166 168 160
336 335 335 334 334 332 331 328 325 323 319 315 305 304 304 303 296 289 280 269 266 256 248 236 243 283 127 243 272 273 276 275 223 189 208 195 143 219 219 222 211 222 221 209 235 247 268 259 252 232 172 135 96 115 113 117 194 116 158 80 122 135 123 227 227 144 83 43 331 82 132 208 239 267 190 165 150 149 153 163 170 174 169 163 157 165 163 163
334 333 332 334 335 334 331 327 323 321 318 311 303 297 299 294 285 277 270 265 254 241 242 210 214 137 11 273 268 268 265 271 230 223 188 165 176 170 234 237 231 225 224 228 245 257 243 271 231 135 49 108 123 127 117 147 117 141 63 94 345 108 143 149 182 164 128 249 263 112 106 188 223 209 160 172 156 156 155 169 174 173 164 157 156 164 158 168
331 328 330 334 335 334 329 327 323 320 310 303 299 295 289 276 265 256 248 237 220 175 191 200 184 216 351 299 264 314 315 241 255 239 210 183 168 188 212 208 220 241 246 263 237 261 263 217 154 162 118 130 127 127 100 74 328 278 124 174 141 125 143 139 315 10 114 134 43 111 167 237 206 218 181 174 168 160 158 170 169 167 158 148 157 159 163 161
328 328 328 332 335 333 329 324 321 313 305 302 299 288 282 254 239 236 249 214 205 188 212 47 120 188 28 246 302 309 251 241 241 321 254 203 180 198 185 217 243 244 242 250 252 269 292 47 295 122 98 119 151 129 96 24 266 286 60 143 208 156 147 121 137 259 127 108 117 21 94 238 242 186 167 157 183 162 160 164 161 159 156 144 156 157 164 156
328 329 330 330 333 332 327 320 318 313 311 304 297 285 286 189 190 304 264 143 174 185 246 260 273 322 279 294 332 247 228 189 227 227 225 221 188 188 161 194 242 234 303 323 322 193 285 70 73 186 126 157 176 158 140 200 187 187 157 117 130 108 191 146 162 190 126 105 111 43 341 271 281 149 121 138 184 166 161 159 159 158 154 147 157 160 163 155
330 331 329 330 329 330 326 321 319 319 320 309 283 276 256 123 65 172 128 149 115 19 30 335 113 66 197 284 269 277 230 203 197 163 239 206 216 171 218 146 158 183 298 149 288 162 322 43 34 85 199 185 192 186 185 207 184 169 170 171 158 154 205 180 143 153 147 146 118 161 198 250 294 56 328 39 121 148 155 159 158 159 158 149 162 166 162 157
331 329 328 327 327 327 325 322 318 326 334 331 351 10 59 9 4 359 29 346 206 209 245 216 205 301 310 275 266 227 332 8 85 313 297 229 170 150 206 172 183 147 125 190 243 221 135 143 185 209 211 210 208 190 206 222 186 136 135 135 173 147 101 72 81 153 147 124 152 160 340 307 332 27 335 348 316 99 84 166 161 166 164 154 169 171 166 164
329 330 327 325 324 320 321 318 320 334 335 333 307 35 19 296 346 343 313 253 212 218 237 222 188 208 240 279 288 339 204 284 30 228 237 229 102 132 224 138 94 222 226 185 158 261 93 172 232 220 216 217 222 212 215 225 150 155 147 145 146 156 161 121 113 150 177 125 165 166 139 207 322 330 303 346 7 48 66 90 176 176 168 163 169 176 169 169
329 328 326 324 321 317 314 315 324 329 326 263 42 27 239 230 202 228 298 321 314 280 209 245 198 231 255 254 261 225 105 105 316 275 277 125 165 141 265 130 163 208 251 128 322 56 163 202 227 224 219 230 237 249 241 172 161 148 149 146 129 129 94 60 81 147 181 95 148 167 150 139 155 290 297 29 23 282 47 108 183 48 235 170 172 176 167 162
326 326 325 323 322 315 313 312 321 328 315 35 340 274 248 228 259 284 236 261 264 274 276 236 256 228 254 266 271 125 135 193 235 286 246 147 122 198 156 171 200 223 233 150 180 173 226 273 238 220 216 222 243 229 222 184 152 147 130 143 177 159 154 161 179 151 189 334 154 130 106 349 347 318 292 264 119 276 289 266 318 210 174 273 182 176 162 167
324 325 323 324 322 318 312 322 308 289 234 225 272 230 250 274 281 324 342 233 285 307 220 230 191 226 234 237 227 154 152 229 150 261 244 141 162 179 156 184 208 211 229 190 189 182 209 222 213 214 213 208 228 224 196 189 176 181 164 154 139 170 208 176 160 138 121 41 118 102 126 79 317 266 265 272 119 334 283 349 328 303 236 211 254 173 168 167
323 324 324 323 324 318 316 318 336 233 259 247 236 254 258 255 245 240 60 334 341 275 269 285 96 211 238 349 0 148 217 289 214 211 191 149 174 110 234 181 126 230 222 206 196 222 251 257 127 208 234 226 219 239 199 175 190 187 194 172 174 176 142 117 131 134 115 82 211 142 136 183 200 249 232 251 342 244 202 243 259 267 280 288 268 197 174 169
325 323 325 326 323 321 304 353 312 329 317 268 244 274 304 257 211 217 98 50 327 269 3 210 105 265 92 228 124 192 68 294 218 198 183 206 147 133 358 298 179 230 230 209 198 206 223 242 177 207 221 232 221 223 207 181 174 162 219 185 158 152 134 141 147 138 146 176 209 205 144 175 180 215 233 229 241 247 203 198 236 245 262 242 252 213 177 171
324 323 324 326 330 329 343 306 292 291 347 307 297 332 322 321 282 68 56 349 10 308 153 235 55 200 235 202 167 57 28 283 323 139 181 216 158 127 180 258 334 282 189 189 184 271 228 202 174 213 214 229 221 244 243 212 163 202 233 160 152 137 152 159 155 157 156 160 75 202 105 137 182 224 210 194 203 229 235 218 217 233 238 248 243 224 188 176
321 322 321 320 334 348 198 316 342 334 251 252 319 321 316 318 337 57 81 62 322 283 301 290 191 353 11 209 135 143 195 208 27 228 243 226 124 82 164 230 236 252 285 348 227 255 189 216 170 200 194 209 221 214 230 156 134 214 143 142 156 162 158 152 155 125 133 118 145 216 253 59 226 236 158 180 196 220 224 218 210 218 227 233 241 224 196 181
321 320 318 311 325 330 240 254 73 243 240 301 316 315 317 320 63 101 113 108 234 257 239 62 294 355 268 1 330 235 283 164 170 227 216 159 184 131 258 254 207 273 268 186 237 294 291 208 213 181 159 218 228 235 213 174 134 186 124 129 113 113 132 156 135 118 136 89 188 218 210 164 234 163 153 175 215 222 218 211 204 207 215 217 228 220 192 184
319 316 311 317 318 161 178 226 226 242 308 313 306 302 301 353 37 41 7 48 179 267 251 226 75 222 114 130 271 218 232 288 222 258 228 140 264 40 252 200 249 286 286 237 220 238 250 238 189 139 186 211 199 207 193 160 143 136 119 113 110 119 136 115 52 99 94 296 244 203 200 196 200 207 187 167 208 210 209 214 208 209 212 213 220 215 188 182
317 305 298 18 221 306 235 295 252 228 239 301 304 315 6 41 100 94 68 231 282 259 1 301 251 60 167 196 263 261 176 207 242 126 16 14 14 174 332 351 19 336 312 326 287 269 291 308 269 219 167 197 102 16 357 50 151 117 135 114 107 65 336 29 20 16 97 267 258 181 190 209 186 248 213 218 214 206 194 195 198 208 210 211 213 208 194 183
314 303 271 203 256 341 171 246 225 34 1 334 349 352 54 27 8 100 254 86 54 295 193 243 245 184 204 206 210 247 185 82 239 99 163 162 175 152 219 190 159 348 329 315 294 323 280 291 227 294 235 113 77 63 321 21 41 94 114 121 120 175 78 229 39 249 206 202 257 163 161 201 258 223 206 209 217 209 201 195 195 197 202 207 209 202 189 187
313 303 246 218 217 248 239 250 317 326 340 358 19 33 59 88 23 256 284 296 236 177 270 175 226 222 225 148 225 223 169 156 193 222 151 208 127 248 224 185 179 142 287 276 308 351 277 286 342 275 337 187 107 121 211 222 3 107 134 148 129 122 174 187 238 203 319 285 358 146 165 256 250 283 201 202 211 206 194 197 194 191 195 201 204 192 185 185
308 310 240 204 201 221 249 190 119 14 19 29 68 30 48 54 295 286 4 287 279 257 249 236 288 182 229 203 247 116 339 309 94 198 158 171 96 296 322 276 207 203 166 269 273 224 62 323 306 135 293 271 119 152 173 161 91 246 163 172 172 146 159 186 174 183 202 207 50 119 129 234 131 255 222 205 199 196 195 194 189 188 190 198 200 188 181 184
308 294 191 222 236 246 237 241 255 20 107 60 43 71 75 266 260 335 323 307 306 323 321 326 273 23 0 304 255 134 141 234 151 206 109 143 247 180 223 291 261 144 112 72 270 95 188 206 249 233 230 163 116 243 121 88 18 288 182 92 105 203 154 140 198 151 172 130 98 174 213 198 187 239 235 202 170 181 176 184 178 188 188 189 198 197 189 187
322 75 147 228 202 257 159 167 160 163 111 58 70 37 351 205 261 284 247 230 296 340 325 328 330 68 264 297 333 146 346 127 254 111 310 139 172 84 279 37 27 116 143 325 237 8 358 318 276 338 292 145 197 143 152 111 121 265 70 209 213 192 114 111 21 69 89 52 214 185 306 304 300 332 315 162 155 176 172 175 181 187 191 188 195 202 193 183
358 330 330 268 244 241 130 139 145 130 72 91 83 317 215 297 254 236 277 330 284 273 349 15 319 27 330 347 286 228 281 51 308 84 313 318 20 299 313 24 355 349 63 132 337 164 104 259 297 177 228 261 204 141 156 160 145 74 64 256 276 109 111 123 176 292 80 137 238 187 235 273 114 276 200 145 160 174 176 175 183 185 184 190 196 199 195 188
319 314 258 258 251 259 121 142 125 77 86 68 337 251 227 220 278 274 286 337 335 23 95 37 288 23 357 21 343 334 312 94 286 74 171 1 116 258 54 7 324 9 351 86 109 303 50 350 297 330 239 248 345 82 5 335 91 162 193 225 69 321 324 322 91 242 236 251 238 292 277 269 196 242 146 176 168 178 174 170 175 183 186 190 194 197 199 192
267 40 326 263 249 201 135 138 107 105 83 43 264 354 262 228 245 329 318 303 275 31 58 269 170 332 76 36 330 318 47 188 68 96 79 351 72 324 44 309 358 344 352 39 61 307 55 125 307 319 343 247 37 85 216 270 323 264 327 347 223 113 161 153 202 173 124 207 63 289 55 247 239 219 236 202 184 180 170 166 183 186 189 188 190 195 196 193
7 27 285 266 317 5 99 125 89 88 68 274 209 216 248 298 309 319 335 8 308 78 308 17 359 9 344 27 27 335 348 39 68 29 88 331 98 298 22 351 8 325 27 58 59 355 26 119 308 290 329 52 104 11 206 170 142 13 234 294 13 278 209 158 272 142 172 168 179 164 291 277 288 294 278 215 186 183 169 175 183 190 192 193 193 194 194 180
315 111 270 269 290 15 98 116 156 186 178 264 209 234 281 271 311 312 327 13 14 215 84 207 1 36 336 17 349 355 49 36 15 68 61 10 59 54 328 36 335 14 359 26 31 354 24 18 28 310 5 5 265 206 186 230 168 162 167 202 181 201 290 302 286 333 91 108 180 132 234 266 278 341 317 204 160 157 169 168 180 186 189 191 190 193 190 199
38 325 259 277 343 348 338 288 261 185 149 228 255 189 228 220 59 309 17 350 72 345 306 39 1 65 54 124 236 25 52 6 2 85 26 123 70 137 277 35 71 25 80 41 290 267 164 136 95 320 245 281 280 295 286 308 207 196 151 237 188 160 131 111 182 279 16 30 117 146 118 284 263 1 345 24 68 85 151 171 173 176 182 186 189 184 188 198
52 231 266 289 299 76 119 254 288 145 214 229 235 240 250 22 266 348 10 338 13 6 15 0 355 46 339 83 331 71 76 62 8 109 146 25 2 3 283 42 56 45 88 352 13 305 83 46 20 286 314 295 299 322 353 46 33 38 357 359 0 241 177 169 185 191 134 219 45 17 57 244 311 20 5 11 48 66 48 45 104 141 171 183 189 191 188 182
277 280 310 293 125 202 98 232 270 256 267 279 236 172 342 178 133 16 27 314 114 359 353 320 348 48 272 29 6 19 36 87 10 65 18 136 65 312 23 24 51 57 69 243 107 292 21 313 108 10 1 341 345 349 1 351 54 90 323 335 341 29 23 216 79 10 114 229 180 124 198 253 289 23 23 23 35 39 39 37 44 64 26 73 130 122 107 164
292 265 249 287 343 77 209 201 209 223 239 285 358 123 188 11 334 132 145 342 347 93 358 288 114 340 21 354 57 33 31 60 173 350 76 22 345 348 28 7 16 83 105 198 167 303 89 317 73 76 70 46 354 337 312 322 314 322 320 23 16 34 356 53 82 53 89 308 54 128 204 273 313 34 30 28 34 39 35 26 25 33 51 71 91 122 138 150
13 1 295 329 346 354 37 317 333 109 292 323 27 216 102 50 338 358 33 184 205 36 302 307 350 32 65 37 43 36 19 23 60 343 13 23 351 343 356 5 358 6 349 16 10 73 111 62 96 145 141 170 214 229 246 183 339 2 27 41 31 34 43 80 114 77 124 205 53 11 355 87 37 12 12 11 28 46 38 36 26 15 16 31 60 73 75 95
317 144 321 335 326 28 342 337 30 321 254 174 99 296 32 183 189 329 273 104 343 62 2 36 308 12 336 64 16 60 0 41 0 58 345 349 320 322 327 32 10 0 2 41 3 70 60 53 350 59 155 204 207 238 294 274 287 50 69 50 46 52 57 55 55 259 182 79 31 8 35 62 16 22 16 8 21 41 46 43 35 22 12 13 19 35 47 36
31 280 44 47 211 277 351 325 343 320 276 112 114 348 345 1 345 169 327 65 92 36 81 336 13 54 99 106 110 64 332 54 35 25 308 346 12 344 11 347 34 350 17 23 20 96 119 51 326 32 3 12 23 346 13 71 86 98 79 67 55 51 59 67 45 13 97 85 126 58 64 62 33 28 30 8 18 57 51 36 38 36 29 28 33 40 38 40
59 313 302 0 26 272 238 273 301 289 278 100 189 198 339 66 26 327 172 37 49 10 82 47 10 338 94 108 103 132 16 63 339 303 114 314 15 4 4 355 325 29 1 44 19 87 66 359 326 64 57 24 359 358 12 73 86 77 69 70 65 61 65 77 74 62 71 90 90 78 69 61 38 22 15 16 355 43 47 39 32 29 37 57 45 28 31 36
17 359 320 346 261 274 283 304 305 3 10 357 78 285 321 59 96 52 41 80 38 327 57 54 351 337 57 75 85 96 207 163 178 101 321 45 343 51 128 193 260 327 32 84 43 341 95 316 332 51 46 12 355 2 34 65 78 78 66 61 65 72 65 57 63 56 73 47 47 67 66 57 22 356 19 18 35 66 58 52 46 34 33 52 59 50 41 43
301 288 301 312 324 287 316 350 355 344 333 337 54 283 68 43 73 258 68 129 116 324 40 62 339 3 354 57 46 50 34 177 135 165 289 77 343 233 124 285 186 315 354 24 27 332 68 279 42 56 55 326 352 52 16 51 74 72 65 58 50 62 55 29 51 5 65 63 2 44 46 39 17 8 37 37 40 52 63 69 65 57 48 57 66 69 62 56
288 282 286 196 252 286 330 310 329 23 353 299 351 292 197 216 202 129 26 320 0 138 114 43 32 78 357 57 35 281 216 179 357 203 198 256 203 245 184 208 107 179 192 77 288 63 26 78 27 24 59 280 302 50 109 30 53 50 37 80 81 71 88 72 60 47 35 35 47 49 73 37 37 356 50 37 44 44 47 51 65 67 63 57 53 50 52 52